{"data":{"norad_id":59103,"epoch":"2026-05-25T03:22:23.760192Z","epoch_age_seconds":69741,"freshness":"FRESH","line1":"1 59103U 24043F   26145.14055278  .00003667  00000+0  25148-3 0  9995","line2":"2 59103  97.8333 282.8132 0006634  49.1053 311.0747 15.06659711121671","mean_motion":15.06659711,"eccentricity":0.0006634,"inclination_deg":97.8333,"raan_deg":282.8132,"arg_perigee_deg":49.1053,"mean_anomaly_deg":311.0747,"bstar":0.00025148,"rev_number":12167,"period_min":95.575662472865,"perigee_km":541.82194721152,"apogee_km":551.00944372787,"semimajor_km":6924.5526954697,"source":"CELESTRAK","updated_at":"2026-05-25T13:38:01.190101Z"}}